Regional Weather Roundup
Issued by NWS

Home | Current Version | Previous Version | Graphics & Text | Print | Product List | Glossary Off
Versions: 1 2 3 4 5 6 7 8 9 10 11 12 13 14 15 16 17 18 19 20 21 22 23 24 25 26 27 28 29 30 31 32 33 34 35 36 37 38 39 40 41 42 43 44 45 46 47 48 49 50

766
ASUS43 KLSX 281159
RWRMO

WEATHER SUMMARY FOR MISSOURI
NATIONAL WEATHER SERVICE SPRINGFIELD MO
700 AM CDT SUN MAY 28 2017

NOTE: "FAIR" INDICATES FEW OR NO CLOUDS BELOW 12,000 FEET WITH NO
       SIGNIFICANT WEATHER AND/OR OBSTRUCTIONS TO VISIBILITY.
       CURRENT SKY AND/OR WEATHER CONDITIONS ARE NOT AVAILABLE FOR
       CHILLICOTHE AND FARMINGTON.

MOZ001>031-035>038-043-044-053-054-281300-
...NORTHERN AND WESTERN MISSOURI...

CITY           SKY/WX    TMP DP  RH WIND       PRES   REMARKS
KANSAS CTY INT MOSUNNY   59  57  93 NW8       29.90R
6HR MIN TEMP:  57; 6HR MAX TEMP:  63;

KANSAS C DTWN  SUNNY     61  59  93 NW3       29.89R
6HR MIN TEMP:  60; 6HR MAX TEMP:  67;

LEE`S SUMMIT   CLOUDY    59  59 100 NW5       29.91R
6HR MIN TEMP:  59; 6HR MAX TEMP:  65;

ST JOSEPH      MOSUNNY   59  58  96 NW6       29.91R
6HR MIN TEMP:  57; 6HR MAX TEMP:  62;

CHILLICOTHE      N/A     58  55  90 CALM      29.89R
6HR MIN TEMP:  56; 6HR MAX TEMP:  64;

KIRKSVILLE     CLOUDY    58  54  86 N10G21    29.85R
6HR MIN TEMP:  57; 6HR MAX TEMP:  61;


$$
MOZ066>068-077>081-088>096-101>105-281300-
...SOUTHWEST MISSOURI...

CITY           SKY/WX    TMP DP  RH WIND       PRES   REMARKS
SPRINGFIELD    CLOUDY    63  61  93 NW3       29.90R
6HR MIN TEMP:  62; 6HR MAX TEMP:  65;

JOPLIN         CLOUDY    64  63  96 N6        29.92R
6HR MIN TEMP:  63; 6HR MAX TEMP:  68;

BRANSON        CLOUDY    63  63 100 CALM      29.90R FOG

$$
MOZ032>034-039>042-045>050-055>058-069>072-281300-
...CENTRAL MISSOURI...

CITY           SKY/WX    TMP DP  RH WIND       PRES   REMARKS
COLUMBIA       FOG       62  62 100 NW13      29.84R VSB 1/4
6HR MIN TEMP:  58; 6HR MAX TEMP:  62;

JEFFERSON CITY FOG       63  61  93 NW6       29.83R VSB 1/2
6HR MIN TEMP:  62; 6HR MAX TEMP:  63;

ROLLA          FOG       59  59 100 SW7       29.83R VSB<1/4
6HR MIN TEMP:  56; 6HR MAX TEMP:  60;

SEDALIA        CLOUDY    63  62  97 NW10      29.88R
6HR MIN TEMP:  63; 6HR MAX TEMP:  65;

WARRENSBURG    CLOUDY    59  55  88 NW7       29.88R
OSAGE BEACH    CLOUDY    62  62 100 CALM      29.87R FOG

$$
MOZ051-052-059>065-281300-
...EAST CENTRAL MISSOURI...

CITY           SKY/WX    TMP DP  RH WIND       PRES   REMARKS
ST LOUIS INTL  CLOUDY    65  60  84 W8        29.78R
6HR MIN TEMP:  64; 6HR MAX TEMP:  67;

SPIRIT OF STL  CLOUDY    62  61  96 W8        29.79R
6HR MIN TEMP:  60; 6HR MAX TEMP:  63;

ST CHARLES     CLOUDY    64  62  93 W6        29.76R
6HR MIN TEMP:  62; 6HR MAX TEMP:  64;


$$
MOZ072>076-082>087-097>100-106>115-281300-
...SOUTH CENTRAL AND SOUTHEAST MISSOURI...

CITY           SKY/WX    TMP DP  RH WIND       PRES   REMARKS
CAPE GIRARDEAU CLOUDY    65  61  87 SW9       29.86R
6HR MIN TEMP:  63; 6HR MAX TEMP:  67; 6HR PCP: TRACE;

POPLAR BLUFF   CLOUDY    65  63  93 SW8         N/A
6HR MIN TEMP:  64; 6HR MAX TEMP:  65; 6HR PCP:  0.13;

WEST PLAINS    CLOUDY    63  61  93 S6        29.88F
6HR MIN TEMP:  61; 6HR MAX TEMP:  63;


$$




USA.gov is the U.S. government's official web portal to all federal, state and local government web resources and services.